FW5472 Weather Reports


time (UTC)temp
C
wind
direction
speed
KPH
gust
KPH
rain 1hr
cm
rain 24hr
cm
rain mn
cm
humidity
%
barometer
mb
20260505210035 23 303 14.5 24.1 0.00 0.00 0.00 48 1014.3
20260505204607 22 314 14.5 27.4 0.00 0.00 0.00 50 1014.5
20260505203035 22 311 17.7 29.0 0.00 0.00 0.00 50 1014.5
20260505200038 22 310 16.1 27.4 0.00 0.00 0.00 51 1014.9
20260505194535 21 308 16.1 30.6 0.00 0.00 0.00 52 1015.0
20260505193035 21 312 16.1 30.6 0.00 0.00 0.00 52 1015.0
20260505191537 21 318 14.5 29.0 0.00 0.00 0.00 52 1015.2
20260505190033 21 314 12.9 27.4 0.00 0.00 0.00 52 1015.2
20260505184643 21 315 14.5 32.2 0.00 0.00 0.00 52 1015.4
20260505183035 21 314 14.5 29.0 0.00 0.00 0.00 53 1015.4
20260505181536 20 317 14.5 25.7 0.00 0.00 0.00 54 1015.4
20260505174617 20 316 16.1 27.4 0.00 0.00 0.00 56 1015.5
20260505174607 19 320 17.7 30.6 0.00 0.00 0.00 56 1015.4
20260505171606 19 316 16.1 25.7 0.00 0.00 0.00 58 1015.4
20260505170037 18 315 16.1 30.6 0.00 0.00 0.00 59 1015.4
20260505164530 18 320 16.1 27.4 0.00 0.00 0.00 60 1015.4
20260505163119 18 318 16.1 29.0 0.00 0.00 0.00 62 1015.4
20260505161609 17 319 16.1 29.0 0.00 0.00 0.00 66 1015.5
20260505153030 16 313 12.9 27.4 0.00 0.00 0.00 71 1015.3
20260505151534 15 320 11.3 22.5 0.00 0.00 0.00 73 1015.2
20260505130144 13 319 9.7 17.7 0.00 0.00 0.00 77 1013.9
20260505124608 13 318 8.0 19.3 0.00 0.00 0.00 77 1013.8
20260505123036 13 319 9.7 17.7 0.00 0.00 0.00 76 1013.6
20260505121534 14 328 8.0 16.1 0.00 0.00 0.00 76 1013.5
20260505114534 14 332 8.0 16.1 0.00 0.00 0.00 75 1013.3
20260505113032 14 332 8.0 20.9 0.00 0.00 0.00 75 1013.2
20260505111534 15 327 9.7 17.7 0.00 0.00 0.00 75 1013.0
20260505100031 16 311 8.0 16.1 0.00 0.00 0.00 69 1012.4
20260505094651 17 306 8.0 12.9 0.00 0.00 0.00 68 1012.4
20260505091651 17 310 9.7 20.9 0.00 0.00 0.00 68 1012.2
20260505084537 17 329 8.0 17.7 0.00 0.00 0.00 71 1012.0
20260505083032 16 335 8.0 22.5 0.00 0.00 0.00 72 1012.1
20260505081535 16 340 6.4 11.3 0.00 0.00 0.00 73 1012.0
20260505080034 16 349 3.2 11.3 0.00 0.00 0.00 71 1012.0
20260505074535 16 328 0.0 8.0 0.00 0.00 0.00 69 1011.9
20260505073036 17 301 0.0 4.8 0.00 0.00 0.00 67 1011.8
20260505071536 18 330 6.4 14.5 0.00 0.00 0.00 66 1011.6
20260505070151 18 332 9.7 19.3 0.00 0.00 0.00 63 1011.4
20260505064533 18 6 3.2 9.7 0.00 0.00 0.00 61 1011.5
20260505063030 19 271 0.0 8.0 0.00 0.00 0.00 58 1011.4
20260505061538 20 293 8.0 17.7 0.00 0.00 0.00 58 1011.1
20260505060036 20 313 12.9 27.4 0.00 0.00 0.00 57 1011.0
20260505054535 20 313 12.9 24.1 0.00 0.00 0.00 54 1010.8
20260505053033 20 298 14.5 24.1 0.00 0.00 0.00 53 1010.8
20260505051538 20 298 12.9 20.9 0.00 0.00 0.00 54 1010.9
20260505041537 20 353 6.4 16.1 0.00 0.00 0.00 55 1010.2
20260505034534 20 335 6.4 14.5 0.00 0.00 0.00 55 1009.8
20260505033107 21 325 8.0 17.7 0.00 0.00 0.00 54 1009.6
20260505031534 22 299 3.2 9.7 0.00 0.00 0.00 51 1009.4
20260505030037 22 307 6.4 17.7 0.00 0.00 0.00 50 1009.2
20260505023036 24 304 9.7 17.7 0.00 0.00 0.00 46 1009.1
20260505021535 25 319 12.9 22.5 0.00 0.00 0.00 45 1009.0
20260505020035 25 307 11.3 22.5 0.00 0.00 0.00 44 1009.1
20260505013036 26 308 14.5 30.6 0.00 0.00 0.00 42 1009.0
20260505010107 27 310 16.1 32.2 0.00 0.00 0.00 40 1009.0
20260505003036 28 310 14.5 29.0 0.00 0.00 0.00 38 1009.1
20260505001531 28 312 14.5 25.7 0.00 0.00 0.00 38 1009.2
20260504234534 29 314 12.9 27.4 0.00 0.00 0.00 37 1009.1
20260504233106 29 310 12.9 22.5 0.00 0.00 0.00 37 1009.1
20260504231642 30 310 12.9 24.1 0.00 0.00 0.00 36 1009.2
20260504230031 30 311 11.3 24.1 0.00 0.00 0.00 36 1009.4
20260504224532 30 311 11.3 20.9 0.00 0.00 0.00 36 1009.6
20260504223035 29 321 12.9 25.7 0.00 0.00 0.00 37 1009.7
20260504221537 30 312 12.9 25.7 0.00 0.00 0.00 36 1009.8
20260504213030 28 311 14.5 25.7 0.00 0.00 0.00 37 1010.1
20260504211535 28 318 14.5 24.1 0.00 0.00 0.00 38 1010.3